Weather in Ilyinskoye

Russia / Yaroslavl Oblast     57°19′22″N   38°30′17″E
temp.,
°C
wind,
m/s
gust,
m/s
humid.,
%
clouds,
%
prec.,
mm/h
press.,
hPa
HPBL,
m
25 february, thu
thu2500:00−13ssw4995100 0.6 1024400
03:00−12ssw41095100 2.6 1021356
06:00−9ssw51293100 3.4 1013497
09:000wsw41297100 4.3 1010454
12:00+2wnw412100100 0.1 1010440
15:00+2wnw412100100 0.2 1011517
18:00+1wnw31099100 0.0 1011429
21:00+1wnw31098100 0.0 1011417
26 february, fri
fri2600:00+1wsw2699100 0.0 1010164
03:00+1wsw2699100 1.3 1009157
06:00+1sw3999100 1.6 1006238
09:00+2wsw513100100 3.3 1003400
12:00+2wsw414100100 1.3 1000538
15:00+2w615100100 2.8 998830
18:00+1w6149696 0.1 9961081
21:00+1wnw7149798 0.8 9971087
27 february, sat
sat2700:00+1wnw71493100 0.5 9961109
03:000wnw71398100 2.0 9981029
06:00−9nnw51290100 1.4 999707
09:00−11nnw51092100 1.4 1002533
12:00−10nnw4891100 0.1 1005525
15:00−9nnw4891100 0.1 1008518
18:00−11nnw3994100 0.0 1010392
21:00−12n399698 0.1 1013301
28 february, sun
sun2800:00−13nnw259787 0.0 1014136
03:00−14nnw259883 0.1 1016128
06:00−13nnw279792 0.1 1016261
09:00−10nnw269490 0.2 1018265
12:00−6nnw369293 0.1 1019515
15:00−4nnw479097 0.2 1020734
18:00−5nnw3793100 0.1 1021473
21:00−6nw2597100 0.2 1023188
1 march, mon
mon100:00−7wnw229794 0.1 102436
03:00−6wsw259696 0.1 1024137
06:00−9wsw369734 0.0 1023131
09:00−5wsw379664 0.1 1021269
12:00−1w5996100 0.1 1020642
15:000w51194100 0.2 1017897
18:00+1w61394100 0.0 1014784
21:00+1w61494100 0.1 1012775